Wetbulb
41.90 36.60 37.24 40.99 42.13 41.32 40.74 40.38 40.07 42.08 44.07 40.82 41.32 41.24 43.45 46.92 47.89 47.78 48.34 49.31 51.45 53.07 54.79 55.99 56.62 57.07 57.23 57.66 57.21 57.52 58.22 59.44 59.94 60.08 59.18 64.49 65.88 67.65 68.12 69.66 69.69 69.41 69.28 68.80
38.73 35.25 42.28 43.41 42.16 39.82 39.83 38.30 38.66 41.47 42.66 40.68 41.10 41.94 45.06 46.63 47.21 47.32 47.70 50.82 51.36 52.45 53.15 54.39 54.95 55.64 55.79 55.71 56.28 56.03 56.30 57.07 57.72 58.88 59.80 61.95 65.69 66.60 67.18 68.76 70.10 69.17 68.39 68.71
34.85 39.40 41.10 40.51 38.91 36.51 38.03 37.31 37.89 37.28 41.33 42.93 41.95 40.58 43.16 44.52 46.26 49.11 50.74 51.24 51.76 51.15 51.39 52.39 52.62 53.39 53.97 53.64 53.92 53.70 54.23 55.00 56.06 57.59 58.97 59.79 64.79 66.58 66.51 66.77 67.82 68.63 68.24 67.60
34.39 38.15 36.51 38.38 37.41 39.06 35.08 40.07 38.70 38.51 38.36 35.52 41.96 35.10 40.28 42.67 44.77 47.43 49.51 50.25 51.20 50.98 51.27 51.37 51.18 51.21 51.27 51.79 51.90 50.56 51.09 52.46 53.23 55.28 57.11 58.97 59.95 63.41 65.41 66.01 66.60 66.95 66.67 66.22
36.22 36.77 35.77 33.69 38.31 40.38 37.44 40.89 39.52 39.99 38.77 38.54 38.68 35.34 39.55 42.53 41.60 45.62 48.50 49.87 49.99 49.99 49.83 49.44 49.38 49.64 50.11 49.84 48.51 46.79 47.30 48.85 49.67 50.92 52.43 57.11 59.51 65.29 66.00 65.96 65.25 65.25 65.31 65.11
38.50 41.49 39.10 37.66 39.62 40.33 41.60 39.24 39.97 40.34 38.64 31.77 36.96 36.52 37.75 39.76 42.45 45.35 48.42 48.78 48.45 48.46 48.87 48.76 49.11 49.10 49.10 49.25 47.55 44.71 44.28 44.94 47.09 48.68 50.69 53.97 60.03 62.34 65.17 65.03 63.79 63.76 63.87 64.33
36.69 36.81 40.80 42.01 37.90 40.55 38.93 35.59 28.82 27.00 27.66 28.75 37.46 35.93 38.47 42.58 45.10 46.47 47.48 47.19 47.29 47.84 47.35 47.17 46.86 46.60 46.83 46.21 45.72 43.07 42.10 42.44 44.45 46.05 48.80 53.84 60.44 61.48 65.18 64.91 64.43 62.71 62.71 63.35
29.95 27.62 37.30 41.51 39.19 36.57 36.56 35.93 29.29 22.72 26.64 31.25 36.54 32.06 38.43 46.17 47.73 47.56 46.86 46.31 46.66 46.50 46.28 46.03 45.43 45.23 45.11 44.25 44.60 42.27 40.11 40.66 42.83 45.48 49.00 53.72 62.94 63.37 66.47 64.97 64.43 63.61 63.76 64.73
32.11 31.11 39.13 39.47 40.37 40.82 37.49 34.53 40.32 33.38 34.22 31.75 34.93 37.83 43.21 43.65 43.53 44.17 44.43 44.77 44.72 44.77 44.54 44.20 44.66 44.09 44.00 42.96 42.95 40.06 39.33 40.15 41.97 45.20 47.69 53.35 65.58 65.92 64.87 64.49 64.47 64.05 66.85 66.63
35.16 29.16 36.57 37.38 39.93 39.26 40.17 42.00 33.10 34.88 25.55 25.09 32.35 34.13 36.45 38.78 40.43 41.61 42.05 42.89 43.54 43.63 43.33 43.10 43.01 42.55 42.93 42.39 42.76 39.55 39.14 39.42 40.84 43.82 46.79 51.91 63.39 63.98 64.36 64.49 64.48 62.91 65.69 64.73
35.53 33.63 32.56 35.26 34.06 33.99 35.74 35.80 36.82 36.41 34.25 27.57 27.11 33.12 40.16 39.56 39.75 39.96 41.53 42.32 42.59 42.38 41.79 41.41 41.73 41.78 41.96 42.14 41.37 37.81 37.77 37.94 39.34 41.90 45.65 49.01 61.30 62.76 63.15 63.11 62.84 61.98 63.06 63.78
36.22 33.25 28.98 30.21 35.80 36.68 35.15 34.59 34.47 30.19 29.05 32.41 31.39 31.89 42.16 41.44 40.48 40.22 40.64 41.11 41.07 41.26 40.59 40.71 40.91 40.61 40.49 40.55 39.37 36.89 36.32 36.48 37.88 39.90 43.07 46.43 48.42 54.89 59.95 60.22 60.64 61.69 61.16 62.29
34.89 30.99 25.58 27.39 32.16 34.48 31.79 32.85 33.00 32.26 31.92 28.38 26.37 30.55 41.91 40.19 40.01 39.57 38.39 39.17 40.08 39.16 39.10 39.58 39.82 39.17 39.00 38.98 37.41 34.54 34.62 34.91 35.75 37.95 41.06 42.29 42.46 45.42 47.63 57.95 59.94 60.55 61.41 61.65
36.46 31.56 28.95 26.04 27.87 31.66 27.86 30.26 31.32 29.74 27.15 27.72 29.06 31.04 36.31 37.16 36.70 39.37 39.35 38.08 38.56 37.35 36.77 37.08 37.58 38.20 38.20 37.82 37.05 33.58 33.19 33.83 34.31 35.69 38.08 38.82 41.40 41.70 42.41 46.41 53.62 59.03 59.64 59.63
34.84 27.63 28.84 29.17 29.93 29.80 28.95 29.26 30.02 28.20 29.37 24.85 29.16 28.96 33.01 36.81 39.10 39.86 38.34 37.35 35.67 33.64 33.69 34.65 35.42 35.73 36.80 35.95 35.31 35.13 32.99 33.07 34.43 33.89 33.87 36.66 38.55 39.11 39.06 39.32 41.22 44.94 51.86 57.60
33.25 26.94 28.57 25.81 29.11 29.09 27.20 29.82 30.33 30.03 30.02 29.72 30.23 30.39 38.83 39.54 39.38 35.54 35.48 34.80 33.26 32.89 32.54 33.19 33.99 33.86 34.29 33.44 33.05 33.15 33.63 32.80 32.78 32.48 33.10 34.39 35.29 37.78 38.30 37.17 36.42 37.08 37.63 40.66
29.26 28.56 25.15 22.35 26.64 26.17 23.35 28.25 30.09 30.78 32.18 32.41 28.72 33.52 36.44 35.60 34.77 33.13 33.17 32.12 31.44 31.04 31.17 30.97 31.68 32.36 32.73 32.22 32.53 32.49 32.67 33.76 31.62 31.00 31.87 31.95 32.65 33.89 35.34 36.18 35.38 33.89 34.21 34.59
28.77 27.84 26.86 23.96 24.56 16.18 28.43 33.90 33.02 29.50 32.32 32.19 32.06 32.44 32.92 32.01 31.46 31.82 31.91 30.75 30.36 30.02 29.52 29.40 30.67 31.21 31.86 31.98 32.04 32.81 32.90 32.02 32.16 30.63 30.31 30.87 31.24 31.42 32.51 34.19 33.68 33.00 32.82 32.08
33.25 30.23 25.78 23.52 23.58 26.30 26.84 28.96 28.12 27.25 26.22 29.75 28.68 30.31 29.23 31.02 31.74 28.87 30.79 30.34 29.42 29.52 30.63 30.33 31.01 31.35 30.81 30.61 31.68 31.75 30.97 31.26 30.81 30.50 30.73 30.90 30.39 30.16 30.53 29.93 31.41 32.04 32.15 31.47
31.97 32.74 29.41 25.60 19.41 17.79 27.64 31.09 33.29 30.65 23.57 28.53 28.22 28.32 30.92 31.52 29.76 26.23 28.72 29.48 28.97 29.92 30.44 30.80 31.15 31.07 30.52 30.37 30.99 30.30 29.48 29.20 29.00 29.54 29.82 31.47 32.04 30.67 30.13 31.04 30.34 30.58 30.35 28.94
26.26 26.16 24.36 24.83 23.67 25.75 26.95 31.85 32.71 22.97 23.79 28.31 27.77 27.45 29.90 26.73 27.47 27.29 28.24 27.58 29.25 29.89 30.05 30.95 30.69 29.60 30.47 32.64 31.41 29.30 29.10 27.75 29.02 30.75 30.70 30.63 31.55 31.54 31.73 31.73 31.92 31.73 30.83 29.43
26.77 25.04 24.85 26.34 22.73 19.30 31.46 31.47 26.72 27.44 29.96 28.89 28.20 27.36 26.14 26.31 25.81 25.48 25.44 25.13 26.75 27.97 28.90 29.93 29.37 28.94 30.20 30.81 31.21 29.63 28.37 30.17 30.72 30.59 30.57 30.40 31.07 31.89 32.46 32.28 32.28 31.92 31.73 30.96
26.00 28.48 28.21 26.69 25.55 29.79 30.25 28.40 29.82 31.14 29.54 28.66 27.23 26.81 26.18 24.30 22.99 23.74 23.68 24.09 25.21 26.94 27.99 29.74 29.44 29.12 29.15 29.85 29.68 28.89 30.65 31.69 31.81 30.97 29.95 30.66 31.48 31.49 32.39 31.67 31.49 33.01 32.37 31.95
30.02 33.14 29.42 28.72 29.02 29.33 29.60 29.82 30.13 29.68 28.25 27.90 27.91 26.82 25.69 22.68 22.90 22.62 23.52 23.88 24.34 24.94 25.74 27.94 28.35 27.18 27.18 29.02 29.26 29.65 31.19 32.88 31.70 30.51 30.11 30.01 30.18 30.34 30.25 31.38 31.19 29.25 30.55 30.85
32.57 33.23 29.17 27.49 29.26 29.61 29.76 30.18 29.41 28.36 28.36 27.23 27.23 26.54 25.22 25.00 24.79 24.81 24.24 24.36 24.29 24.31 24.79 25.60 25.30 25.51 25.92 27.71 27.85 29.20 30.21 31.99 31.29 30.17 30.10 30.28 30.03 29.79 29.16 27.65 27.62 28.72 28.76 28.72
33.41 30.52 28.82 28.18 31.13 30.89 29.15 30.24 30.39 27.88 26.72 27.16 25.98 25.27 25.94 25.61 24.14 24.59 23.63 24.10 23.87 22.78 22.93 22.73 22.93 23.40 24.79 25.96 25.63 27.19 29.64 29.98 29.86 28.87 28.43 28.36 29.29 29.44 29.51 29.18 27.22 26.08 26.41 27.10
MSLP
1010.72 1010.16 1007.27 1007.39 1007.35 1007.01 1006.50 1005.53 1004.91 1004.63 1005.00 1005.46 1004.55 1004.06 1003.75 1003.83 1003.81 1003.90 1004.16 1004.94 1005.58 1006.24 1006.74 1006.95 1007.36 1007.71 1007.82 1007.73 1007.77 1007.65 1007.26 1006.92 1006.67 1006.01 1005.07 1004.16 1003.85 1004.40 1004.54 1004.43 1005.01 1005.44 1005.98 1006.69
1010.22 1008.67 1007.89 1007.73 1007.54 1007.47 1006.90 1006.07 1005.35 1005.20 1005.31 1005.07 1004.35 1003.38 1002.90 1003.08 1003.19 1003.48 1004.12 1005.08 1005.95 1006.51 1006.77 1007.08 1007.30 1007.50 1007.80 1007.92 1007.95 1007.84 1007.46 1007.06 1006.74 1006.13 1005.36 1004.04 1003.13 1003.24 1003.77 1003.92 1004.06 1004.51 1005.59 1006.15
1010.04 1008.98 1008.22 1008.06 1008.05 1007.79 1006.84 1006.08 1005.62 1005.33 1004.96 1004.94 1004.21 1003.04 1001.99 1002.81 1003.42 1004.08 1004.70 1005.74 1006.41 1006.89 1007.30 1007.49 1007.73 1007.94 1008.03 1007.95 1008.01 1007.99 1007.68 1007.35 1006.88 1006.29 1005.34 1004.48 1003.13 1002.57 1002.94 1003.42 1003.61 1003.95 1004.88 1005.55
1010.26 1009.20 1009.13 1008.54 1007.74 1007.50 1006.18 1006.24 1006.08 1005.61 1005.23 1003.57 1003.74 1001.80 1001.73 1002.28 1003.33 1004.18 1005.02 1005.89 1006.60 1007.28 1007.75 1007.93 1008.07 1008.37 1008.60 1008.57 1008.65 1008.41 1007.95 1007.37 1006.83 1006.29 1005.14 1004.07 1002.79 1001.41 1001.58 1001.99 1002.55 1003.18 1003.98 1004.83
1008.23 1008.81 1008.83 1009.35 1007.05 1007.10 1006.55 1006.29 1006.27 1005.57 1004.97 1004.32 1003.34 1002.96 1000.67 1002.22 1003.01 1003.93 1005.20 1006.26 1007.18 1007.86 1008.26 1008.30 1008.43 1008.73 1008.80 1009.03 1009.03 1008.67 1008.08 1007.49 1006.84 1006.24 1005.60 1004.34 1002.69 1001.17 1000.82 1001.25 1002.04 1002.78 1003.14 1003.71
1009.03 1009.23 1009.05 1008.78 1008.66 1007.65 1007.35 1006.98 1006.18 1005.78 1004.87 1003.68 1002.86 1002.47 1000.69 1001.98 1002.47 1003.88 1005.64 1006.95 1007.89 1008.35 1008.52 1008.59 1008.81 1008.90 1008.83 1009.05 1009.22 1009.00 1008.04 1007.43 1006.77 1005.88 1004.98 1003.81 1002.30 1001.05 1000.01 1000.48 1001.41 1002.00 1002.42 1002.88
1008.45 1008.29 1007.23 1006.56 1006.53 1006.82 1007.82 1006.74 1006.11 1005.58 1004.35 1002.63 1002.24 1002.24 1001.27 1002.53 1003.88 1004.72 1006.25 1007.59 1008.47 1008.86 1008.99 1008.97 1008.92 1008.91 1008.98 1009.19 1009.10 1008.80 1007.92 1007.37 1006.45 1005.34 1004.18 1002.74 1001.27 1000.40 999.59 999.95 1000.56 1001.47 1001.92 1002.34
1007.00 1006.72 1006.09 1005.60 1005.61 1005.65 1006.00 1005.80 1005.44 1003.66 1002.70 1002.14 1003.19 1002.46 1002.73 1004.54 1005.57 1006.70 1007.63 1008.43 1009.00 1009.26 1009.46 1009.51 1009.61 1009.64 1009.60 1009.41 1009.09 1008.64 1007.61 1006.94 1005.75 1004.63 1003.22 1001.71 999.71 999.13 999.18 999.69 1000.21 1000.80 1001.22 1001.52
1005.86 1006.14 1006.24 1005.93 1005.92 1005.46 1005.14 1004.83 1004.47 1003.96 1003.65 1003.01 1002.33 1003.38 1004.94 1005.95 1006.71 1007.50 1008.23 1008.84 1009.35 1009.68 1009.93 1010.10 1010.09 1010.15 1010.10 1009.57 1009.27 1009.07 1007.93 1007.22 1006.15 1004.38 1002.68 1000.62 998.45 998.36 998.88 999.33 999.85 1000.18 1000.12 1000.40
1006.17 1006.27 1006.51 1006.49 1006.25 1005.87 1005.19 1004.67 1005.29 1004.86 1003.86 1002.85 1002.38 1002.49 1002.80 1005.95 1006.90 1007.78 1008.58 1009.27 1009.76 1010.15 1010.43 1010.60 1010.63 1010.80 1010.63 1010.01 1009.71 1009.40 1008.44 1007.77 1006.13 1004.43 1002.77 1000.62 998.79 998.75 998.84 999.02 999.22 999.78 999.70 1000.32
1006.89 1006.87 1006.95 1006.78 1006.46 1005.79 1005.87 1005.51 1005.69 1005.19 1004.97 1004.07 1003.35 1003.45 1005.43 1006.50 1007.62 1008.34 1009.07 1009.85 1010.44 1010.79 1011.09 1011.32 1011.35 1011.31 1010.91 1010.43 1010.23 1009.67 1008.29 1007.59 1006.38 1005.05 1003.32 1001.54 999.53 999.07 998.96 998.83 999.19 999.79 1000.09 1000.33
1008.30 1007.32 1007.01 1007.46 1007.77 1007.64 1007.16 1006.56 1006.34 1006.22 1005.89 1005.84 1005.71 1005.10 1006.42 1007.45 1008.50 1009.27 1009.76 1010.61 1011.22 1011.78 1012.09 1011.96 1011.91 1011.61 1011.43 1011.00 1010.72 1009.94 1009.33 1008.57 1007.61 1006.25 1004.53 1002.89 1001.26 1000.02 999.48 999.41 999.15 999.63 1000.13 1000.46
1008.13 1007.56 1007.81 1008.04 1008.30 1008.25 1007.95 1008.11 1008.14 1008.08 1007.90 1006.93 1006.51 1005.97 1007.46 1008.45 1008.67 1009.49 1010.66 1011.36 1011.88 1012.41 1012.73 1012.63 1012.45 1012.44 1012.22 1011.78 1011.24 1010.50 1009.98 1009.48 1008.40 1007.05 1005.20 1004.02 1002.93 1001.72 1000.91 999.93 999.58 999.49 999.80 1000.27
1008.68 1008.36 1008.08 1007.67 1008.08 1008.33 1008.89 1009.03 1009.07 1009.05 1008.58 1007.61 1007.22 1006.89 1007.50 1008.14 1008.60 1009.30 1010.75 1012.19 1012.68 1013.09 1013.48 1013.77 1013.47 1013.21 1012.98 1012.53 1011.70 1011.27 1010.89 1010.39 1009.12 1008.51 1006.64 1005.39 1003.96 1003.27 1002.51 1001.38 999.99 1000.06 1000.24 1000.45
1009.39 1009.02 1009.23 1009.30 1009.51 1009.56 1009.54 1009.54 1009.53 1009.42 1009.11 1008.91 1008.17 1008.25 1008.51 1008.91 1009.43 1010.05 1011.96 1012.91 1013.73 1014.34 1014.63 1014.80 1014.50 1014.05 1013.89 1013.29 1012.45 1012.13 1011.67 1011.08 1010.38 1008.89 1006.73 1006.32 1005.22 1003.94 1003.27 1002.52 1002.45 1001.99 1001.08 1000.80
1010.15 1009.94 1009.97 1009.92 1010.13 1010.24 1010.09 1009.95 1009.93 1009.90 1009.83 1009.75 1009.77 1009.39 1009.59 1010.60 1011.35 1012.46 1013.34 1014.00 1014.82 1015.38 1015.71 1015.81 1015.59 1015.14 1015.07 1014.12 1013.56 1013.16 1012.64 1012.13 1011.14 1009.86 1009.21 1008.43 1006.80 1005.91 1005.30 1004.41 1004.06 1004.09 1003.13 1003.27
1010.41 1010.52 1010.64 1010.38 1010.83 1010.88 1010.71 1010.37 1010.24 1010.39 1010.54 1010.74 1010.82 1010.91 1011.81 1012.00 1012.89 1014.03 1014.84 1015.57 1016.31 1016.72 1016.85 1016.94 1016.65 1016.38 1016.00 1015.15 1014.77 1014.12 1013.74 1013.12 1012.15 1011.29 1010.43 1009.30 1008.39 1007.44 1006.66 1006.10 1005.53 1005.82 1005.07 1005.42
1010.85 1011.07 1011.31 1011.05 1011.45 1011.23 1011.71 1012.06 1012.11 1012.41 1012.48 1012.97 1013.17 1013.45 1013.95 1014.50 1015.29 1016.13 1016.75 1017.13 1017.71 1017.95 1018.07 1017.88 1017.70 1017.34 1016.71 1016.20 1015.76 1015.20 1014.61 1014.00 1013.23 1012.37 1011.42 1010.56 1009.54 1008.88 1008.45 1008.16 1007.75 1007.18 1006.78 1006.54
1011.41 1011.36 1011.43 1011.41 1011.27 1011.61 1012.68 1013.26 1013.81 1014.04 1014.07 1014.88 1015.04 1015.18 1015.62 1016.21 1016.60 1017.52 1018.31 1018.78 1019.10 1019.08 1018.97 1018.99 1018.65 1018.07 1017.62 1017.09 1016.62 1015.95 1015.46 1014.94 1014.25 1013.53 1012.88 1012.25 1011.63 1010.84 1010.45 1009.76 1009.39 1008.84 1008.35 1007.81
1012.07 1011.97 1011.93 1012.06 1012.01 1012.10 1013.39 1014.20 1014.68 1015.50 1015.37 1016.20 1016.58 1016.51 1016.49 1017.06 1016.79 1018.64 1019.45 1019.77 1019.90 1019.82 1019.83 1019.53 1019.21 1018.79 1018.16 1017.93 1017.37 1016.78 1016.33 1015.92 1015.40 1014.93 1014.35 1013.72 1012.99 1012.41 1011.92 1011.56 1011.06 1010.68 1010.00 1009.56
1012.31 1012.64 1012.40 1012.48 1012.71 1013.73 1015.00 1015.15 1015.57 1016.14 1017.08 1017.27 1017.69 1017.62 1017.21 1018.17 1019.09 1020.05 1020.45 1020.70 1020.79 1020.70 1020.46 1020.11 1019.66 1019.10 1018.80 1018.41 1017.96 1017.51 1017.23 1016.87 1016.77 1016.04 1015.41 1014.85 1014.23 1013.69 1013.27 1012.83 1012.20 1011.72 1011.24 1010.76
1012.23 1012.58 1012.66 1013.03 1013.78 1014.70 1015.78 1015.62 1016.54 1017.62 1017.93 1018.45 1018.85 1019.12 1019.06 1019.77 1020.52 1021.01 1021.35 1021.63 1021.62 1021.31 1020.87 1020.43 1019.96 1019.59 1019.37 1018.91 1018.34 1018.17 1017.85 1017.87 1017.43 1016.95 1016.28 1015.94 1015.43 1014.93 1014.35 1013.78 1013.40 1012.92 1012.60 1012.24
1013.31 1013.65 1013.42 1014.49 1015.18 1016.37 1017.12 1017.67 1018.24 1018.52 1018.82 1019.44 1019.82 1020.31 1020.52 1020.86 1021.33 1021.78 1022.25 1022.43 1022.33 1021.88 1021.23 1020.70 1020.33 1020.19 1020.13 1019.75 1019.39 1018.75 1018.30 1018.11 1017.76 1017.34 1017.05 1016.91 1016.51 1016.00 1015.49 1014.95 1014.54 1014.06 1013.93 1013.65
1013.38 1013.81 1013.89 1014.90 1016.10 1016.87 1017.86 1018.56 1019.07 1019.53 1019.89 1020.39 1020.79 1021.12 1021.43 1021.84 1022.40 1022.72 1022.89 1022.97 1022.87 1022.66 1022.17 1021.58 1021.15 1021.07 1020.85 1020.54 1020.22 1019.69 1019.03 1018.30 1018.04 1017.84 1017.78 1017.66 1017.33 1017.13 1016.88 1016.12 1015.88 1015.81 1015.58 1015.56
1013.05 1013.49 1014.28 1015.59 1016.67 1017.54 1018.40 1019.11 1019.75 1020.37 1020.75 1021.12 1021.64 1021.90 1022.23 1022.58 1022.91 1023.07 1023.24 1023.28 1023.33 1023.34 1023.17 1022.93 1022.65 1022.34 1021.96 1021.65 1021.28 1020.70 1020.00 1019.20 1018.69 1018.63 1018.50 1018.26 1018.13 1018.04 1017.98 1018.24 1017.99 1017.59 1017.66 1017.18
1013.70 1014.17 1014.46 1014.96 1016.18 1017.23 1018.57 1019.59 1020.23 1020.69 1021.22 1021.67 1021.93 1022.35 1022.78 1023.06 1023.29 1023.53 1023.72 1023.93 1024.12 1024.19 1024.36 1024.13 1024.01 1023.79 1023.52 1022.99 1022.57 1022.00 1021.15 1020.49 1019.88 1019.51 1019.33 1019.44 1019.08 1018.99 1018.79 1018.73 1019.07 1019.58 1019.44 1019.15
Wind_Speed
18 13 25 23 22 21 10 15 14 8 7 6 15 17 16 14 14 13 10 7 3 2 5 8 10 11 12 12 13 14 16 15 12 10 11 12 13 13 15 15 20 18 15 16
14 26 24 18 18 20 22 19 19 15 16 11 15 16 13 15 15 8 7 8 4 2 7 10 13 14 14 14 14 15 16 16 14 11 11 13 12 13 14 13 12 15 17 16
20 19 9 21 18 19 21 21 16 15 5 13 13 19 14 6 7 8 7 5 3 4 7 10 13 14 15 17 17 16 17 16 16 17 12 12 15 12 11 13 12 16 17 16
10 19 20 15 24 22 22 16 15 12 10 11 6 4 12 9 11 10 8 6 3 5 8 10 11 13 15 15 17 17 17 18 16 17 15 17 16 16 15 15 12 12 16 16
16 22 24 20 16 16 18 7 14 16 13 14 14 8 6 13 10 12 9 5 5 7 10 12 13 13 14 15 16 17 17 17 18 17 16 16 18 16 13 11 13 12 14 17
13 1 6 16 17 16 9 6 10 10 11 14 17 12 11 13 11 11 9 5 6 9 11 12 13 13 14 14 14 16 17 17 18 17 17 19 23 23 15 14 10 10 10 12
14 19 18 14 15 14 21 12 7 9 9 13 2 10 4 11 6 5 6 6 8 10 12 13 16 17 16 18 19 16 17 20 19 19 18 18 24 24 19 18 10 10 10 9
9 8 20 9 15 10 22 19 10 11 11 10 7 8 7 11 13 10 8 6 8 10 12 15 16 16 17 18 19 19 18 20 20 19 19 19 22 14 13 12 8 10 10 12
14 9 4 4 5 6 15 20 17 10 4 7 8 8 8 9 8 6 6 6 8 11 13 15 17 16 18 18 20 19 18 19 19 20 18 20 15 15 9 10 8 9 13 13
2 5 4 5 5 4 6 7 8 8 12 15 12 9 3 8 5 5 6 6 7 10 13 15 16 17 17 17 18 17 16 18 19 20 17 17 6 10 12 10 12 12 13 12
7 7 6 3 3 3 5 6 4 5 5 7 11 2 4 8 5 6 8 8 10 11 13 14 14 16 17 17 18 17 18 20 21 20 19 18 7 8 9 9 10 9 11 16
5 3 4 2 3 2 3 2 4 5 8 4 7 6 4 6 6 7 8 8 8 10 11 12 14 16 17 18 18 18 17 18 19 19 17 15 13 12 4 7 10 12 11 12
2 2 3 3 2 1 2 1 2 3 1 9 10 2 6 3 3 3 6 7 8 8 11 12 14 15 16 17 18 18 18 17 18 19 17 15 14 14 12 7 6 8 13 15
2 3 6 5 4 4 5 7 4 3 4 4 9 13 4 8 15 15 1 4 5 8 11 12 12 14 15 16 18 17 17 16 18 15 15 14 15 13 13 12 9 5 8 9
1 4 1 4 4 1 2 6 7 10 10 7 9 11 14 16 18 9 2 4 6 8 10 12 12 14 15 16 17 18 16 17 16 15 16 19 15 15 13 15 14 12 8 4
3 4 1 2 3 4 8 9 10 11 13 14 15 16 11 17 5 3 3 5 6 8 10 12 13 14 15 16 17 16 17 16 16 16 16 15 16 15 14 13 15 14 14 12
4 5 4 2 2 1 8 5 10 9 7 7 11 13 17 15 3 4 5 8 7 9 10 11 12 12 13 15 15 16 15 15 15 16 16 17 15 14 15 12 14 14 14 13
6 6 3 3 4 5 8 6 7 4 9 5 8 12 10 9 10 10 10 9 9 10 10 11 10 11 13 14 14 14 14 15 16 15 17 18 18 18 16 13 12 12 11 13
4 4 3 3 5 4 5 4 4 4 2 7 9 10 3 8 10 12 10 11 9 9 8 8 10 10 12 13 14 13 15 15 17 17 16 16 15 15 15 16 14 11 11 15
6 2 3 3 4 4 6 7 4 1 7 6 7 8 7 10 5 6 9 9 9 9 8 9 9 9 12 12 13 14 15 15 15 16 15 15 14 14 14 13 14 12 10 13
6 3 6 5 4 6 2 9 3 7 6 7 7 9 8 5 7 8 8 9 8 7 9 8 9 11 11 9 10 13 13 16 14 13 13 14 14 14 13 12 12 11 12 13
4 5 4 3 4 3 11 1 5 5 6 6 8 9 13 12 10 9 9 8 8 9 10 10 10 12 13 14 13 12 14 11 11 12 13 14 14 12 11 13 12 12 11 12
3 3 2 5 5 5 7 6 4 5 6 7 7 8 8 9 9 9 8 8 9 10 10 10 11 12 13 14 14 14 12 10 9 11 13 13 14 13 12 14 13 10 11 11
5 5 3 6 5 7 6 6 7 7 8 8 9 8 10 10 7 7 6 7 8 10 11 11 12 14 14 14 14 14 13 11 12 13 13 12 13 14 15 11 11 11 11 10
4 5 6 5 8 8 6 6 7 9 9 10 9 9 9 8 8 8 8 10 10 10 11 11 11 12 13 13 14 14 14 13 11 12 11 11 10 11 12 14 14 12 14 15
1 3 3 3 8 6 8 8 8 8 9 9 10 10 9 9 9 9 9 9 9 10 10 11 12 12 12 13 14 15 16 15 13 11 10 10 9 8 8 8 10 22 23 24
Wind_Direction
203 213 222 225 225 240 287 269 249 202 220 262 253 257 254 248 251 240 245 195 189 344 344 357 360 353 342 337 325 321 314 314 308 294 274 239 232 221 224 222 219 208 205 197
209 232 240 232 240 238 247 250 254 264 259 244 259 254 241 248 247 245 177 161 131 334 354 358 354 351 348 339 335 323 312 314 307 293 277 276 238 232 229 233 220 209 206 196
217 249 235 251 237 231 237 245 252 255 208 233 263 260 235 197 163 154 137 118 129 32 359 359 354 349 342 337 336 326 317 311 305 297 281 265 262 241 219 223 216 208 202 198
235 249 292 271 239 227 237 220 245 251 249 253 195 264 173 173 170 182 159 161 77 29 5 358 349 345 342 338 333 328 320 313 305 302 289 264 265 234 223 222 212 202 191 185
204 199 194 234 234 222 248 228 233 241 249 262 235 252 161 176 179 174 162 118 69 22 6 356 351 343 334 343 332 328 322 316 311 302 285 271 254 249 235 221 210 199 187 183
241 281 182 216 235 254 262 239 235 240 240 243 245 228 168 187 187 143 135 98 31 10 360 355 350 343 341 341 337 327 329 321 310 304 289 263 262 251 231 218 214 193 191 181
212 219 217 208 213 202 215 216 210 225 216 243 166 227 202 131 116 97 106 57 21 6 359 351 351 346 344 341 338 334 336 320 316 308 292 272 264 238 232 227 201 187 192 187
210 209 212 184 232 201 197 203 219 214 226 230 144 229 106 91 87 89 74 35 11 3 0 356 353 349 342 340 339 340 339 325 323 312 302 290 260 222 222 219 198 199 198 205
195 200 164 187 209 233 191 217 243 282 270 275 199 143 114 113 109 103 63 20 11 6 2 358 353 355 342 346 342 341 340 327 320 320 315 304 239 214 205 205 196 215 207 207
57 134 191 140 196 113 262 164 200 218 246 240 237 240 160 139 114 72 45 23 17 8 2 0 357 352 343 350 343 339 345 331 329 329 323 311 222 206 201 195 199 190 204 189
30 271 146 220 337 55 168 189 232 286 283 275 271 245 84 111 79 40 32 21 12 2 2 359 354 352 352 351 349 342 351 347 340 335 333 337 291 218 206 190 170 172 169 168
204 278 142 96 27 287 285 292 276 255 214 262 300 292 139 113 63 8 15 16 5 1 3 358 358 358 355 356 353 355 352 348 341 333 337 343 345 351 194 197 181 177 175 171
199 141 180 207 188 44 243 114 126 137 245 254 263 266 147 120 234 115 338 352 358 0 8 2 5 359 357 360 360 356 353 345 342 337 349 354 358 4 354 305 189 185 176 183
237 178 276 260 53 95 174 172 162 167 228 291 244 293 215 288 308 319 74 340 357 17 16 6 5 359 359 2 7 360 354 350 342 332 357 360 0 2 358 0 2 178 201 188
20 180 190 85 107 130 194 213 220 239 247 254 292 301 304 317 318 348 43 30 27 30 18 8 4 2 358 3 9 4 359 349 347 353 360 7 355 16 360 23 16 5 21 135
5 125 156 228 244 258 265 255 251 250 260 266 273 276 3 334 14 53 47 52 23 29 21 10 6 6 359 8 6 2 0 355 352 6 8 358 8 12 18 31 35 19 31 20
135 140 164 184 137 255 251 280 264 244 250 292 285 341 330 318 176 42 53 49 34 27 22 8 5 5 5 11 7 6 0 359 4 7 8 7 11 12 22 24 44 37 37 28
154 153 172 142 184 223 76 40 47 360 308 346 320 337 342 60 79 70 48 51 40 28 19 14 6 5 12 14 12 11 11 9 12 11 13 10 12 18 17 23 30 46 43 38
191 161 145 211 215 83 157 43 359 352 326 23 341 328 182 122 118 68 53 48 39 28 25 21 14 19 22 20 14 19 19 19 18 16 14 12 14 20 22 23 20 27 47 52
171 226 243 181 252 220 71 6 341 193 232 24 337 305 239 199 241 79 54 43 39 31 21 20 25 18 31 22 22 25 24 21 17 14 16 16 18 23 25 25 29 28 46 58
141 158 217 202 259 105 2 326 352 230 48 18 15 342 238 98 46 84 65 50 35 31 28 28 32 36 28 24 26 29 25 26 15 12 22 23 23 24 23 28 29 34 42 53
182 188 190 192 232 165 358 147 312 12 63 74 67 59 84 94 88 75 60 45 35 31 33 35 42 38 30 26 30 35 31 14 16 21 28 26 28 29 26 30 34 33 37 44
184 331 58 350 54 75 44 64 36 36 86 84 91 80 88 87 71 59 55 45 38 34 36 36 42 45 36 33 27 26 30 33 31 31 32 31 33 30 33 36 30 33 37 39
144 173 100 187 100 99 91 81 74 74 84 84 80 85 85 88 86 80 72 61 54 42 38 33 39 39 34 30 32 24 14 29 36 41 38 37 37 42 32 32 42 37 32 39
47 167 140 88 123 119 95 98 106 97 93 93 91 93 96 103 95 92 77 62 51 44 38 38 37 38 33 32 30 24 21 15 33 40 38 37 40 41 58 50 35 44 43 41
249 140 198 88 143 87 111 126 126 118 112 112 112 107 101 104 99 91 77 67 60 51 38 38 38 35 29 29 30 22 21 25 24 32 37 29 38 36 35 46 71 54 50 48